Location: Ajisawe
(8.4333°N, 4.3833°E)
Time: 00:51:41
(UTC+00:00)

Meteor 1-27 Rocket - Pass Details

Date: 07 June 2020
Orbit: 829 x 911 km, 81.3° (Epoch: 13 July)

Event Time Altitude Azimuth Distance (km) Brightness Sun altitude
Rises 04:51:18 0° 1° (N) 3,359 7.2 -8.1°
Reaches altitude 10° 04:53:43 10° 5° (N) 2,425 6.5 -7.6°
Maximum altitude 04:59:07 60° 85° (E) 948 4.4 -6.3°
Drops below altitude 10° 05:04:33 10° 164° (SSE) 2,447 6.0 -5.1°
Sets 05:07:00 0° 167° (SSE) 3,391 6.7 -4.6°
